weather.gov     
National Weather Service

Regional Weather Roundup
NWS Homepage
This page is being discontinued on March 12, 2014.
The same data is available at this site. Please update your bookmarks.
Thank you, and we apologize for the inconvenience.
Please send an email to SR-SRH.Webmaster@noaa.gov with any concerns.


Current Version
Previous Version:    01  02  03  04  05  06  07  08  09  10  11  12  13  14  15  16  17  18  19  20  21  22  23  24  25  26  27  28  29  30  
   31  32  33  34  35  36  37  38  39  40  41  42  43  44  45  46  47  48  49  50  51  52  53  
[Printable]
756
ASUS44 KMEG 270810
RWRTN
TENNESSEE HOURLY STATE WEATHER ROUNDUP
NATIONAL WEATHER SERVICE MEMPHIS TN
300 AM CDT WED AUG 27 2014

TNZ002-004-019-021-049-052-054-088>092-270900-
WEST TENNESSEE

CITY           SKY/WX    TMP DP  RH WIND       PRES   REMARKS
MEMPHIS INTL   CLEAR     76  68  76 CALM      30.06R
NWS MEMPHIS      N/A     73 N/A N/A MISG        N/A
JACKSON        PTCLDY    70  68  94 CALM      30.07S FOG
DYERSBURG      CLEAR     72  64  78 CALM      30.07S
UNION CITY     PTCLDY    70  70 100 CALM      30.06S
PARIS            N/A     68  68 100 CALM      30.08S VSB 1/4
HUNTINGDON     CLEAR     71  70  97 CALM      30.07S
LEXINGTON      CLEAR     70  68  94 CALM      30.07S
SAVANNAH       CLEAR     66  66 100 CALM      30.08R
$$

TNZ008-025-027-028-033-062-065-066-270900-
NORTH MIDDLE TENNESSEE

CITY           SKY/WX    TMP DP  RH WIND       PRES   REMARKS
NASHVILLE      CLEAR     72  69  90 CALM      30.08S
DICKSON        CLEAR     72  70  94 CALM      30.08F
PORTLAND       CLEAR     70  70 100 CALM      30.07F
CLARKSVILLE    CLEAR     72  70  93 CALM      30.07S
LEBANON        CLEAR     69  68  97 CALM      30.06F
SMYRNA         PTCLDY    69  69 100 CALM      30.08S
MURFREESBORO   CLEAR     70  68  93 CALM      30.08S
COOKEVILLE     MOCLDY    66  66 100 CALM      30.09F VSB 1
LIVINGSTON     CLEAR     67  62  84 CALM      30.11
GALLATIN       CLEAR     72  72 100 CALM      30.08F
CROSSVILLE     CLEAR     68  62  81 CALM      30.14S HAZE
$$

TNZ061-075-076-078-094-096-097-270900-
SOUTH MIDDLE TENNESSEE

CITY           SKY/WX    TMP DP  RH WIND       PRES   REMARKS
LEWISBURG      CLEAR     66  64  93 CALM      30.08S
FAYETTEVILLE   CLEAR     66  66 100 CALM      30.09S
TULLAHOMA      CLEAR     64  63  94 CALM      30.11S
WINCHESTER     CLEAR     64  64 100 CALM      30.10S
MCMINNVILLE    CLOUDY    64  64 100 CALM      30.10S VSB 1/4
COLUMBIA       CLEAR     66  66 100 CALM      30.07S
SHELBYVILLE    CLEAR     68  68 100 CALM      30.09F
$$

TNZ017-018-042-046-047-270900-
NORTHEAST TENNESSEE

CITY           SKY/WX    TMP DP  RH WIND       PRES   REMARKS
TRI CITIES     CLEAR     59  56  89 CALM      30.13S
ELIZABETHTON   SUNNY     57  55  94 NE3       30.13F
$$

TNZ012-013-036-069-073-074-270900-
CENTRAL EAST TENNESSEE

CITY           SKY/WX    TMP DP  RH WIND       PRES   REMARKS
KNOXVILLE      PTCLDY    64  63  96 NE6       30.08S
OAK RIDGE      PTCLDY    67  65  93 CALM      30.11R
GATLINBURG     SUNNY     61  59  94 CALM      30.09S
MORRISTOWN     SUNNY     64  63  94 CALM      30.11F
$$

TNZ083-085-099-270900-
SOUTHEAST TENNESSEE

CITY           SKY/WX    TMP DP  RH WIND       PRES   REMARKS
CHATTANOOGA    CLEAR     70  66  87 CALM      30.08F
$$

SKY/WX REPORTED AS FAIR MEANS FEW OR NO CLOUDS BELOW
12 THOUSAND FEET.





U.S. Dept. of Commerce
NOAA National Weather Service
1325 East West Highway
Silver Spring, MD 20910
E-mail: w-nws.webmaster@noaa.gov
Page last modified: May 16, 2007
NATIONAL WEATHER SERVICE: for Safety, for Work, for Fun - FOR LIFE